Regional Weather Roundup
Issued by NWS Upton, NY

Current Version | Previous Version | Graphics & Text | Print | Product List | Glossary Off
Versions: 1 2 3 4 5 6 7 8 9 10 11 12 13 14 15 16 17 18 19 20 21 22 23 24 25 26 27 28 29 30 31 32 33 34 35 36 37 38 39 40 41 42 43 44 45 46 47 48 49 50

063
ASUS41 KOKX 241708
RWROKX

REGIONAL WEATHER ROUNDUP
NATIONAL WEATHER SERVICE NEW YORK NY
100 PM EDT SAT SEP 24 2016

NOTE: "FAIR" INDICATES FEW OR NO CLOUDS BELOW 12,000 FEET WITH NO
SIGNIFICANT WEATHER AND/OR OBSTRUCTIONS TO VISIBILITY.

NYZ071-072-176-178-NJZ106-104-241800-
NEW YORK CITY METRO AREA

CITY           SKY/WX    TMP DP  RH WIND       PRES   REMARKS
Central Park   SUNNY     68  48  48 E7        30.15S
LaGuardia APRT MOSUNNY   68  47  46 N9G17     30.11F
Kennedy INTL   PTSUNNY   66  49  54 N9        30.12F
Newark/Liberty MOSUNNY   68  50  52 NE12      30.12S
Bronx Bot Gard   N/A     68  43  40 N3        30.11F
Wall St Helipt MOSUNNY   70  52  52 NE3       30.12F
Teterboro      SUNNY     69  41  36 N10G18    30.11F
$$

NYZ177-179-078>081-241800-
LONG ISLAND NEW YORK

CITY           SKY/WX    TMP DP  RH WIND       PRES   REMARKS
Farmingdale    MOSUNNY   66  46  48 N12       30.11F
MacArthur/ISP  PTSUNNY   65  49  56 N5G17     30.11F
Shirley        MOSUNNY   66  51  58 N12       30.12S
Riverhead      NOT AVBL
Westhampton    PTSUNNY   66  49  54 N10       30.12S
Southampton      N/A     66  52  59 N5        30.08
Bridgehampton    N/A     63  52  67 E1        29.96
East Hampton   PTSUNNY   63  49  61 N7        30.10S
Montauk          N/A     65  50  58 VRB5      30.11F
$$

NYZ052-065-067-241800-
HUDSON VALLEY

CITY           SKY/WX    TMP DP  RH WIND       PRES   REMARKS
White Plains   MOSUNNY   67  42  40 VRB6      30.11S
Newburgh       MOSUNNY   66  45  45 N12G18    30.15F
Montgomery     SUNNY     67  44  43 NE9G18    30.13F
Poughkeepsie   SUNNY     66  39  37 N13G23    30.13F
Albany         PTSUNNY   65  46  50 W3        30.16F
$$

NJZ001-105-106-008-010-013-015-019>022-104-241800-
NEW JERSEY

CITY           SKY/WX    TMP DP  RH WIND       PRES   REMARKS
Newark/Liberty MOSUNNY   68  50  52 NE12      30.12S
Teterboro      SUNNY     69  41  36 N10G18    30.11F
Caldwell       SUNNY     68  47  46 VRB6      30.13F
Morristown     PTSUNNY   66  52  59 NE8       30.13S
Somerville     CLOUDY    68  50  52 N7        30.11F
Linden         NOT AVBL
Sussex         SUNNY     67  46  47 NE10      30.13F
Abdover          N/A     66  49  54 NE6       30.13F
Trenton        CLOUDY    65  51  60 NE8       30.12F
Millville      CLOUDY    65  60  84 NE13      30.11S
Atlantic City  CLOUDY    64  59  83 N12       30.10S
Wrightstown    CLOUDY    61  57  87 N7        30.10F
Toms River     CLOUDY    63  56  78 NE12      30.13R
Belmar         CLOUDY    62  55  77 NE7       30.13S
$$

PAZ047>061-062-071-241800-
EASTERN PENNSYLVANIA

CITY           SKY/WX    TMP DP  RH WIND       PRES   REMARKS
Philadelphia   CLOUDY    66  56  70 NE10      30.13S
Allentown      CLOUDY    68  52  56 E6        30.13F
Scranton       SUNNY     66  46  48 N13       30.16S
$$

CTZ002-004>006-009-010-012-RIZ004-006-007-MAZ004-011-015-241800-
SOUTHERN NEW ENGLAND
 IN CT

CITY           SKY/WX    TMP DP  RH WIND       PRES   REMARKS
Bradley INTL   MOSUNNY   65  40  39 NE9       30.12F
Hartford       MOSUNNY   66  41  40 NE10G22   30.12S
Danbury        MOSUNNY   65  40  39 N8G20     30.13F
Wtrbury/Oxford MOSUNNY   64  41  42 NE12G17   30.13F
Bridgeport     SUNNY     68  43  40 NE8       30.11F
Meriden        PTSUNNY   68  43  40 N10       30.12S
New Haven      MOSUNNY   67  44  43 N13       30.11F
Chester        PTSUNNY   64  45  48 VRB7      30.11S
Groton         PTSUNNY   67  46  47 N12G23    30.09F
Wilimantic     MOSUNNY   65  42  43 N8        30.11F

 IN RI

CITY           SKY/WX    TMP DP  RH WIND       PRES   REMARKS
Providence     PTSUNNY   65  40  39 N14G26    30.10F
Block Island   PTSUNNY   62  49  62 NE9G17    30.10S
Westerly       CLOUDY    65  43  44 N9G20     30.11S
 IN MA

CITY           SKY/WX    TMP DP  RH WIND       PRES   REMARKS
Boston         MOSUNNY   63  41  44 N7        30.10F
Worcester      MOSUNNY   60  38  43 N12       30.11F
Westfield      PTSUNNY   64  39  39 N12G17    30.12F
Provincetown   MOSUNNY   62  49  62 N12       30.10S
Nantucket      SUNNY     65  41  41 N20G25    30.07S
$$

ANZ330-335-338-340-345-350-353-355-241800-
COASTAL MARINE OBSERVATIONS


STATION/POSITION TIME  SKY/WX   TEMP    WIND        PRES    VSBY  WAVE
                                AIR SEA DIR/SP/G                  HT/PER
                 (UTC)          (F)     (DEG/KT/KT) (MB)    (MI)  (FT/S)
NY HARB ENTRANCE 1650            62 72   20/ 14/ 17 1019.3          5/ 6
20S FIRE ISLAND  1650            63 71   30/ 14/ 17 1018.8          5/11
GREAT SOUTH BAY  1615            63 73   20/ 10/ 16   N/A
23 SSW MONTAUK P 1650            62 68   20/ 14/ 16 1019.6          5/10
15 E BARNEGAT LI 1630               72                N/A           6/11
HUDSON CANYON    1550            64 70              1017.4          7/11
KINGS POINT      1636            64 74              1019.6
EXECUTION ROCKS  1645            65      80/  4/ 10   N/A
CENTRAL LI SOUND NOT AVBL
EASTERN LI SOUND NOT AVBL
ROBBINS REEF     1642            63      20/ 11/ 14 1020.1
$$


>>>>>>>>>>>>>>>>>>>>>>>>>>>> KEY <<<<<<<<<<<<<<<<<<<<<<<<<<<
>                                                          <
>     SKY/WX - Sky Condition/Present Weather               <
>     TMP    - Temperature in Fahrenheit                   <
>     DP     - Dew Point in Fahrenheit                     <
>     RH     - Relative Humidity in Percent                <
>     WIND   - Direction (from) and Speed in MPH           <
>     PRES   - Mean Sea Level Pressure (inches of Hg)      <
>     WCI    - Wind Chill Index                            <
>     VSB    - VISIBILITY IN MILES                         <
>     HX     - HEAT INDEX                                  <
>     TC     - TEMPERATURE IN CELSIUS                      <
>     VRB    - VARIABLE WIND DIRECTION                     <
>                                                          <
>>>>>>>>>>>>>>>>>>>>>>>>>>>> KEY <<<<<<<<<<<<<<<<<<<<<<<<<<<




USA.gov is the U.S. government's official web portal to all federal, state and local government web resources and services.